Location: Luz Observatory
(34.5000°N, 117.2833°W)
Time: 00:21:06
(UTC-07:00)

Daily predictions for brighter satellites

Satellite Brightness Start Highest point End
(mag) Time Altitude Azimuth Time Altitude Azimuth Time Altitude Azimuth
Cosmos 1943 Rocket 4.2 02:52:44 10° NNW 02:54:06 18° NNW 02:54:06 18° NNW
SL-16 R/B 2.8 03:00:43 63° NNE 03:00:43 63° NNE 03:06:07 10° N
Resurs 1-4 Rocket 3.2 02:57:06 10° NNE 03:00:31 41° NNE 03:00:31 41° NNE
Cosmos 2123 Rocket 4.3 02:59:43 10° N 03:05:32 62° ENE 03:05:32 62° ENE
Cosmos 1656 Rocket 4.4 03:00:26 10° N 03:05:18 50° NE 03:05:18 50° NE
BREEZE-M DEB (TANK) 3.9 03:05:59 83° WNW 03:06:19 89° SW 03:25:32 10° SE
CZ-2D R/B 2.9 03:07:49 10° NNE 03:11:34 47° NNE 03:11:34 47° NNE
Centaur D AC-29 3.7 03:15:46 31° SSE 03:15:46 31° SSE 03:27:19 10° ESE
Cosmos 1934 Rocket 4.4 03:19:11 52° NNW 03:19:11 52° NNW 03:23:51 10° N
USA 229 DEB 4.4 03:17:45 10° NNW 03:24:49 56° NE 03:31:59 10° SE
USA 229 4.4 03:17:52 10° NNW 03:24:55 56° NE 03:32:04 10° SE
Cosmos 1605 Rocket 3.9 03:32:11 78° WNW 03:32:11 78° WNW 03:38:26 10° N
ARIANE 5 R/B 3.1 03:28:53 10° N 03:32:52 50° NNW 03:32:52 50° NNW
Cosmos 1726 4.2 03:38:31 26° NNE 03:38:31 26° NNE 03:40:16 10° NNE
UNKNOWN OBJECT B 4.3 03:33:00 10° NNE 03:35:28 35° NNE 03:35:28 35° NNE
MOZ.5/SAFIR/RUBIN 5/SL-8 4.2 03:39:35 57° NNE 03:39:35 57° NNE 03:43:29 10° N
Hubble Space Telescope 3.2 03:48:17 15° ESE 03:48:17 15° ESE 03:49:14 10° ESE
Cosmos 2221 4.5 03:54:46 20° NNW 03:54:46 20° NNW 03:56:26 10° NNW
ADEOS II 3.4 03:48:07 10° NNE 03:52:54 35° E 03:55:48 20° SSE
Cosmos 1153 Rocket 4.4 03:53:36 62° SSW 03:54:41 78° W 04:01:03 10° N
Cosmos 1666 Rocket 3.7 03:51:52 10° N 03:56:02 73° NE 03:56:02 73° NE
Kakehashi 3.8 04:00:13 49° SSW 04:01:02 53° SSE 04:07:51 10° E
Cosmos 1802 Rocket 4.4 04:02:41 23° SSE 04:06:36 62° E 04:12:45 10° NNE
ADEOS 4.4 04:02:34 10° N 04:06:52 35° WNW 04:06:52 35° WNW
Cosmos 773 Rocket 4.1 04:06:32 48° S 04:07:58 72° ESE 04:13:15 10° NNE
BREEZE M DEB (TANK) 3.9 04:05:41 16° NW 04:08:45 60° NE 04:21:40 10° ESE
Cosmos 2100 Rocket 4.0 04:05:50 34° S 04:08:48 85° E 04:15:13 10° N
OAO 1 4.4 04:09:56 56° W 04:11:09 86° N 04:16:42 10° E
COSMOS 2406 4.0 04:11:14 33° WNW 04:11:27 34° WNW 04:16:34 10° N
Cosmos 1447 Rocket 4.4 04:09:16 10° NNW 04:15:22 63° W 04:17:42 38° SSW
Okean O Rocket 3.2 04:11:24 10° NE 04:15:22 32° E 04:18:45 13° SSE
Cosmos 1151 Rocket 3.7 04:15:14 28° SSE 04:17:11 51° E 04:21:20 10° NNE
Cosmos 1833 Rocket 3.9 04:14:05 15° SSE 04:18:11 38° ESE 04:23:21 10° NE
Meteor 2-10 4.1 04:19:23 42° SSW 04:21:24 73° W 04:27:05 10° N
Cosmos 1300 3.6 04:22:37 36° NW 04:22:37 36° NW 04:25:22 10° N
ATLAS 2A CENTAUR R/B 4.5 04:28:40 10° SE 04:28:40 10° SE 04:28:43 10° SE
Sich 1 3.8 04:28:13 10° NNW 04:31:36 35° WNW 04:31:36 35° WNW
Cosmos 2173 Rocket 4.0 04:31:44 28° SSW 04:35:09 64° W 04:41:28 10° N
Cosmos 1455 3.1 04:35:23 15° SSE 04:38:18 47° E 04:41:55 10° NNE
Cosmos 1315 Rocket 4.0 04:37:26 10° NNW 04:39:53 26° WNW 04:39:53 26° WNW
Resurs 1-4 Rocket 4.1 04:39:36 10° NW 04:41:30 12° WNW 04:41:35 12° WNW
SL-16 R/B 4.3 04:45:49 13° WNW 04:45:49 13° WNW 04:47:23 10° WNW
Cosmos 2228 Rocket 3.5 04:46:16 34° WSW 04:47:26 41° W 04:51:40 10° N
Cosmos 1470 Rocket 3.4 04:44:25 10° NNW 04:48:41 65° W 04:52:49 11° S
Tiangong 2 1.1 04:51:27 46° WSW 04:52:16 75° NNW 04:55:30 10° ENE
Cosmos 1515 Rocket 4.0 04:52:14 30° SW 04:53:50 42° W 04:58:01 10° N
CZ-4B DEB 4.3 04:48:52 10° NNE 04:54:25 80° ESE 04:59:53 10° S
Cosmos 1459 Rocket 4.4 04:54:41 22° SW 04:58:02 39° W 05:03:40 10° N
PSLV R/B 4.2 04:56:06 10° N 05:00:05 47° WNW 05:02:26 22° SW
Cosmos 1633 Rocket 4.3 04:57:25 10° NW 05:00:44 22° W 05:00:51 22° W
Cosmos 923 Rocket 4.0 04:58:17 19° SSW 05:01:56 60° WNW 05:07:07 10° N
Cosmos 2082 Rocket 2.1 04:58:18 15° SSW 05:03:01 79° WNW 05:08:40 10° NNE
IRS-1C Rocket 4.1 05:01:33 10° NNE 05:06:50 90° WNW 05:12:06 10° SSW
CZ-4B R/B 3.5 05:05:58 10° N 05:10:14 45° WNW 05:13:49 14° SW
Meteor 1-31 Rocket 3.4 05:06:58 10° NNE 05:10:51 58° E 05:14:43 10° S
Lacrosse 5 3.2 05:07:35 10° NNW 05:12:25 43° NE 05:17:14 10° ESE
Meteor 2-3 Rocket 3.7 05:07:16 10° NNW 05:12:51 67° W 05:18:29 10° S
Meteor PRIRODA 3.7 05:10:14 10° NNE 05:13:54 81° ESE 05:17:31 10° S
CZ-2C R/B 4.1 05:13:58 10° SSE 05:18:20 66° ENE 05:22:45 10° N
Landsat 4 3.6 05:16:48 10° S 05:20:30 71° WSW 05:24:14 10° NNW
Shenzhou-11 Module 3.3 05:18:40 14° WNW 05:20:49 31° NNW 05:23:38 10° NE
Cosmos 1680 Rocket 3.7 05:16:03 11° SSW 05:21:01 53° WNW 05:26:13 10° N
NOSS 3-1 (A) 4.1 05:13:14 10° NW 05:21:06 74° WSW 05:29:37 10° SSE
Cosmos 1892 3.2 05:19:05 10° NNW 05:22:39 37° W 05:26:13 10° SSW
CZ-4B R/B 3.3 05:17:23 10° N 05:22:45 59° WNW 05:28:00 10° SSW
Hubble Space Telescope 1.6 05:23:40 15° WSW 05:26:40 35° S 05:30:27 10° ESE
Cosmos 2112 Rocket 4.2 05:22:24 10° SSW 05:27:35 54° WNW 05:32:49 10° N
Cosmos 2084 3.2 05:25:59 10° SSW 05:30:07 81° WNW 05:34:04 10° NNE
ADEOS II 3.3 05:28:13 10° NNW 05:32:22 24° WNW 05:36:31 10° WSW
Cosmos 2233 Rocket 3.9 05:26:34 10° SSW 05:32:39 73° W 05:38:48 10° N
Cosmos 2369 3.8 05:28:33 10° NNW 05:34:01 52° WSW 05:39:29 10° S
OAO 2 Rocket 3.5 05:29:52 12° WSW 05:34:25 61° SSE 05:39:22 10° E
Abrixas 2.1 05:32:39 10° NW 05:35:17 85° NE 05:37:53 10° SE
Cosmos 1825 2.6 05:33:57 10° N 05:37:45 69° E 05:41:32 10° SSE
COSMOS 2487 4.0 05:36:30 10° WSW 05:39:05 20° WNW 05:41:47 10° NNW
USA 234 3.3 05:38:21 10° NE 05:44:54 75° NW 05:51:25 10° SW
Cosmos 1656 3.9 05:42:06 10° NNW 05:47:38 53° WSW 05:53:08 10° S
Okean-O 2.7 05:43:54 10° NNE 05:48:22 89° ESE 05:52:47 10° SSW
Lacrosse 4 Rocket 3.6 05:45:38 10° SSE 05:49:24 28° ESE 05:53:15 10° NE
Cosmos 2056 Rocket 4.5 05:44:27 10° N 05:49:45 56° ENE 05:55:04 10° SSE
